• Join FlightAware (Why Join?)
  • Login
  • US Flag GB Flag 
20:00 EST


 

Airport Tracker/Info


-or-


 

Live Flight TrackerFlight Track Log ✈ SWA303 ✈ 18-Apr-2013 ✈ KDEN - KIAD

Flight Track Log - Related Links

Times and Time Zones

All times are in EDT time to prevent confusion due to time zone crossing. See the SWA303 flight status page for this flight to view local times or setup timezone preferences in your user account.

Time Position Orientation Groundspeed Altitude Reporting Facility
EDT Latitude Longitude Course Direction KTS MPH feet Rate Location/Type
16:16 39.8833 -104.6167 110° East 179 206 6,300  Level Denver TRACON
16:16 39.8692 -104.5672 110° East 197 227 7,100 1,680 Climbing Denver Center
16:17 39.8406 -104.4847 114° Southeast 245 282 9,100 1,920 Climbing Denver Center
16:18 39.8053 -104.3797 114° Southeast 321 369 11,100 2,640 Climbing Denver Center
16:19 39.7597 -104.2494 114° Southeast 365 420 14,600 3,120 Climbing Denver Center
16:21 39.7153 -104.1222 114° Southeast 386 444 17,600 3,000 Climbing Denver Center
16:22 39.6711 -103.9961 114° Southeast 384 442 20,900 2,760 Climbing Denver Center
16:23 39.6175 -103.8575 117° Southeast 404 465 23,300 2,160 Climbing Denver Center
16:24 39.5714 -103.7211 114° Southeast 394 453 25,400 1,860 Climbing Denver Center
16:25 39.5350 -103.5753 108° East 416 479 27,200 1,560 Climbing Denver Center
16:26 39.4928 -103.4208 109° East 448 516 28,600 1,440 Climbing Denver Center
16:27 39.4514 -103.2622 109° East 461 531 30,200 1,440 Climbing Denver Center
16:28 39.4092 -103.0994 109° East 471 542 31,600 1,320 Climbing Denver Center
16:29 39.3644 -102.9361 109° East 475 547 33,000 1,140 Climbing Denver Center
16:30 39.3269 -102.7642 106° East 496 571 34,000 1,140 Climbing Denver Center
16:31 39.3050 -102.6283 102° East 494 568 35,400 1,380 Climbing Denver Center
16:32 39.2686 -102.4122 102° East 484 557 36,900 720 Climbing Denver Center
16:33 39.2364 -102.2203 102° East 488 562 37,000  Climbing Denver Center
16:34 39.2092 -102.0556 102° East 491 565 37,000  Level Denver Center
16:35 39.1806 -101.8897 102° East 493 567 37,000  Level Denver Center
16:36 39.1469 -101.6936 102° East 493 567 37,000  Level Denver Center
16:37 39.1183 -101.5297 103° East 493 567 37,000  Level Denver Center
16:38 39.0850 -101.3383 103° East 493 567 37,000  Level Denver Center
16:39 39.0556 -101.1756 103° East 490 564 37,000  Level Denver Center
16:40 39.0267 -101.0106 103° East 493 567 37,000  Level Denver Center
16:41 38.9914 -100.8197 103° East 493 567 37,000  Level Denver Center
16:42 38.9606 -100.6556 104° East 493 567 37,000  Level Denver Center
16:43 38.9250 -100.4625 103° East 496 571 37,000  Level Denver Center
16:44 38.8953 -100.3033 103° East 487 560 37,000  Level Denver Center
16:45 38.8606 -100.1150 103° East 485 558 37,000  Level Denver Center
16:46 38.8300 -99.9536 104° East 486 559 37,000  Level Denver Center
16:47 38.7933 -99.7619 104° East 493 567 37,000  Level Denver Center
16:48 38.7619 -99.6006 104° East 490 564 37,000  Level Denver Center
16:49 38.7303 -99.4358 104° East 495 570 37,000  Level Denver Center
16:50 38.6989 -99.2864 105° East 495 570 37,000  Level Kansas City Center
16:51 38.6661 -99.1131 104° East 499 574 37,000  Level Kansas City Center
16:52 38.6311 -98.9436 105° East 493 567 37,000  Level Kansas City Center
16:53 38.5986 -98.7689 103° East 503 579 37,000  Level Kansas City Center
16:54 38.5567 -98.5642 105° East 497 572 37,000  Level Kansas City Center
16:55 38.5219 -98.3933 105° East 495 570 37,000  Level Kansas City Center
16:56 38.4864 -98.2231 105° East 496 571 37,000  Level Kansas City Center
16:57 38.4511 -98.0550 105° East 491 565 37,000  Level Kansas City Center
16:58 38.4153 -97.8836 105° East 495 570 37,000  Level Kansas City Center
16:59 38.3792 -97.7111 105° East 499 574 37,000  Level Kansas City Center
17:00 38.3425 -97.5389 105° East 499 574 37,000  Level Kansas City Center
17:02 38.3061 -97.3681 105° East 498 573 37,000  Level Kansas City Center
17:03 38.2619 -97.1611 105° East 501 577 37,000  Level Kansas City Center
17:04 38.2247 -96.9914 106° East 499 574 37,000  Level Kansas City Center
17:05 38.1864 -96.8197 106° East 501 577 37,000  Level Kansas City Center
17:06 38.1483 -96.6503 106° East 499 574 37,000  Level Kansas City Center
17:07 38.1111 -96.4817 106° East 497 572 37,000  Level Kansas City Center
17:08 38.0731 -96.3106 106° East 501 577 37,000  Level Kansas City Center
17:09 38.0306 -96.1217 106° East 501 577 37,000  Level Kansas City Center
17:10 37.9933 -95.9600 106° East 501 577 37,000  Level Kansas City Center
17:11 37.9492 -95.7714 106° East 501 577 37,000  Level Kansas City Center
17:12 37.9119 -95.6083 106° East 504 580 37,000  Level Kansas City Center
17:13 37.8725 -95.4389 106° East 502 578 37,000  Level Kansas City Center
17:14 37.8314 -95.2686 107° East 502 578 37,000  Level Kansas City Center
17:15 37.7850 -95.0703 106° East 502 578 37,000  Level Kansas City Center
17:16 37.7458 -94.9069 107° East 505 581 37,000  Level Kansas City Center
17:17 37.7003 -94.7206 107° East 501 577 37,000  Level Kansas City Center
17:18 37.6611 -94.5578 107° East 499 574 37,000  Level Kansas City Center
17:19 37.6200 -94.3903 107° East 498 573 37,000  Level Kansas City Center
17:20 37.5803 -94.2256 107° East 495 570 37,000  Level Kansas City Center
17:21 37.5472 -94.0592 104° East 497 572 37,000  Level Kansas City Center
17:22 37.5625 -93.8408 85° East 520 598 37,000  Level Kansas City Center
17:23 37.5794 -93.6592 83° East 521 600 37,000  Level Kansas City Center
17:24 37.5947 -93.4783 84° East 520 598 37,000  Level Kansas City Center
17:25 37.6081 -93.2958 85° East 520 598 37,000  Level Kansas City Center
17:26 37.6228 -93.1136 84° East 522 601 37,000  Level Kansas City Center
17:27 37.6369 -92.9306 84° East 522 601 37,000  Level Kansas City Center
17:28 37.6508 -92.7456 85° East 527 606 37,000  Level Kansas City Center
17:29 37.6692 -92.5242 84° East 532 612 37,000  Level Kansas City Center
17:30 37.6811 -92.3392 85° East 532 612 37,000  Level Kansas City Center
17:31 37.6944 -92.1619 85° East 515 593 37,000  Level Kansas City Center
17:33 37.7078 -91.9839 85° East 520 598 37,000  Level Kansas City Center
17:34 37.7211 -91.8014 85° East 523 602 37,000  Level Kansas City Center
17:35 37.7344 -91.5847 85° East 518 596 37,000  Level Kansas City Center
17:36 37.7483 -91.4056 84° East 514 592 37,000 300 Level Kansas City Center
17:37 37.7647 -91.2267 83° East 513 590 37,700 720 Climbing Kansas City Center
17:38 37.7731 -91.0475 87° East 513 590 38,600 600 Climbing Kansas City Center
17:39 37.7822 -90.8672 86° East 515 593 39,000 180 Climbing Kansas City Center
17:40 37.7933 -90.6850 86° East 518 596 39,000  Level Kansas City Center
17:41 37.8039 -90.5092 86° East 515 593 39,000  Level Kansas City Center
17:42 37.8164 -90.2925 86° East 516 594 39,000  Level Kansas City Center
17:43 37.8269 -90.1142 86° East 516 594 39,000  Level Kansas City Center
17:44 37.8364 -89.9411 86° East 510 587 39,000  Level Kansas City Center
17:45 37.8444 -89.7661 87° East 504 580 39,000  Level Kansas City Center
17:46 37.8547 -89.5586 86° East 506 582 39,000  Level Kansas City Center
17:47 37.8642 -89.3800 86° East 508 585 39,000  Level Kansas City Center
17:48 37.8717 -89.1853 87° East 513 590 39,000  Level Kansas City Center
17:49 37.8778 -89.0142 87° East 519 597 39,000  Level Kansas City Center
17:50 37.8850 -88.8306 87° East 523 602 39,000  Level Kansas City Center
17:51 37.8986 -88.6342 85° East 525 604 39,000  Level Kansas City Center
17:52 37.9058 -88.4525 87° East 518 596 39,000  Level Kansas City Center
17:53 37.9111 -88.2733 88° East 512 589 39,000  Level Kansas City Center
17:54 37.9169 -88.0964 88° East 507 583 39,000  Level Kansas City Center
17:55 37.9258 -87.8819 87° East 506 582 39,000  Level Kansas City Center
17:56 37.9267 -87.8458 88° East 508 585 39,000  Level Indianapolis Center
17:57 37.9372 -87.6706 86° East 501 577 39,000  Level Indianapolis Center
17:58 37.9581 -87.4578 83° East 505 581 39,000  Level Indianapolis Center
17:59 37.9717 -87.2819 84° East 504 580 39,000  Level Indianapolis Center
18:00 37.9867 -87.1058 84° East 506 582 39,000  Level Indianapolis Center
18:01 38.0017 -86.9286 84° East 508 585 39,000  Level Indianapolis Center
18:02 38.0161 -86.7492 84° East 514 592 39,000  Level Indianapolis Center
18:03 38.0311 -86.5706 84° East 512 589 39,000  Level Indianapolis Center
18:04 38.0453 -86.3897 84° East 515 593 39,000  Level Indianapolis Center
18:05 38.0622 -86.1728 84° East 512 589 39,000  Level Indianapolis Center
18:06 38.0756 -85.9939 85° East 511 588 39,000  Level Indianapolis Center
18:07 38.0897 -85.8139 84° East 512 589 39,000  Level Indianapolis Center
18:08 38.1022 -85.6358 85° East 506 582 39,000  Level Indianapolis Center
18:09 38.1178 -85.4556 84° East 510 587 39,000  Level Indianapolis Center
18:10 38.1319 -85.2783 84° East 504 580 39,000  Level Indianapolis Center
18:11 38.1464 -85.0789 85° East 506 582 39,000  Level Indianapolis Center
18:12 38.1597 -84.9003 85° East 507 583 39,000  Level Indianapolis Center
18:13 38.1719 -84.7219 85° East 507 583 39,000  Level Indianapolis Center
18:14 38.1861 -84.5431 84° East 507 583 39,000  Level Indianapolis Center
18:15 38.1989 -84.3653 85° East 504 580 39,000  Level Indianapolis Center
18:16 38.2106 -84.1908 85° East 497 572 39,000  Level Indianapolis Center
18:17 38.2247 -83.9881 85° East 493 567 39,000  Level Indianapolis Center
18:18 38.2367 -83.8128 85° East 495 570 39,000  Level Indianapolis Center
18:19 38.2478 -83.6397 85° East 491 565 39,000  Level Indianapolis Center
18:20 38.2594 -83.4667 85° East 490 564 39,000  Level Indianapolis Center
18:21 38.2689 -83.2936 86° East 488 562 39,000  Level Indianapolis Center
18:22 38.2794 -83.1228 85° East 485 558 39,000  Level Indianapolis Center
18:23 38.2889 -82.9508 86° East 485 558 39,000  Level Indianapolis Center
18:24 38.3003 -82.7497 86° East 486 559 39,000  Level Indianapolis Center
18:25 38.3108 -82.5767 86° East 488 562 39,000  Level Indianapolis Center
18:26 38.3197 -82.4078 86° East 488 562 39,000  Level Indianapolis Center
18:27 38.3292 -82.2339 86° East 491 565 39,000  Level Indianapolis Center
18:28 38.3378 -82.0658 86° East 480 552 39,000  Level Indianapolis Center
18:29 38.3450 -81.8944 87° East 486 559 39,000  Level Indianapolis Center
18:31 38.3494 -81.7250 88° East 483 556 39,000  Level Indianapolis Center
18:32 38.3411 -81.5228 93° East 482 555 39,000  Level Indianapolis Center
18:33 38.3367 -81.3561 92° East 478 550 39,000 -540 Level Indianapolis Center
18:34 38.3308 -81.1867 92° East 483 556 38,000 -960 Descending Indianapolis Center
18:35 38.3242 -81.0197 93° East 478 550 37,100 -780 Descending Indianapolis Center
18:35 38.3222 -80.9592 92° East 481 554 37,000 -120 Descending Washington Center
18:36 38.3150 -80.7947 93° East 476 548 37,000  Level Washington Center
18:37 38.3094 -80.6300 92° East 470 541 37,000  Level Washington Center
18:38 38.3058 -80.4631 92° East 470 541 37,000  Level Washington Center
18:39 38.3308 -80.3061 78° East 457 526 37,000 -120 Level Washington Center
18:40 38.3572 -80.1619 77° East 457 526 36,800 -1,380 Descending Washington Center
18:41 38.3903 -80.0078 75° East 457 526 34,300 -3,060 Descending Washington Center
18:42 38.4292 -79.8536 72° East 452 520 30,700 -3,120 Descending Washington Center
18:43 38.4681 -79.6942 73° East 458 527 28,100 -2,580 Descending Washington Center
18:44 38.5031 -79.5236 75° East 458 527 25,600 -2,100 Descending Washington Center
18:45 38.5369 -79.3742 74° East 446 513 24,000 -1,380 Descending Washington Center
18:46 38.5603 -79.2292 78° East 428 493 22,900 -1,560 Descending Washington Center
18:47 38.5831 -79.0975 77° East 423 487 20,900 -1,980 Descending Washington Center
18:48 38.6056 -78.9606 78° East 409 471 19,000 -1,980 Descending Washington Center
18:49 38.6258 -78.8286 79° East 396 456 17,000 -2,040 Descending Washington Center
18:50 38.6564 -78.6994 73° East 381 438 15,000 -1,980 Descending Washington Center
18:51 38.6867 -78.5731 73° East 368 423 13,100 -1,800 Descending Washington Center
18:52 38.7147 -78.4544 73° East 358 412 11,400 -1,200 Descending Washington Center
18:53 38.7525 -78.3469 66° East 341 392 10,800 -1,020 Descending Washington Center
18:54 38.8269 -78.2803 35° Northeast 314 361 9,400 -1,440 Descending Washington Center
18:55 38.9033 -78.2217 31° Northeast 308 354 8,000 -1,200 Descending Washington Center
18:56 38.9797 -78.1658 30° Northeast 314 361 7,000 -1,020 Descending Washington Center
18:57 39.0539 -78.1094 31° Northeast 309 356 6,000 -1,020 Descending Washington Center
18:58 39.1364 -78.0536 28° Northeast 304 350 5,000 -540 Descending Washington Center
18:59 39.2042 -77.9994 32° Northeast 293 337 5,000  Level Washington Center
19:00 39.2247 -77.9039 74° East 257 296 5,000  Level Washington Center
19:02 39.2667 -77.7000 75° East 241 277 5,000  Level Potomac TRACON
19:03 39.3000 -77.6000 67° East 240 276 5,000 -240 Level Potomac TRACON
19:04 39.3000 -77.5333 90° East 237 273 4,600 -540 Descending Potomac TRACON
19:05 39.2667 -77.4833 131° Southeast 204 235 4,000 -300 Descending Potomac TRACON
19:06 39.2167 -77.4667 166° South 166 191 4,000  Level Potomac TRACON
19:07 39.1833 -77.4667 180° South 159 183 4,000 -360 Level Potomac TRACON
19:08 39.1333 -77.4667 180° South 163 188 3,300 -780 Descending Potomac TRACON
19:09 39.0833 -77.4667 180° South 163 188 2,400 -900 Descending Potomac TRACON
19:10 39.0500 -77.4667 180° South 153 176 1,700 -720 Descending Potomac TRACON
19:11 39.0167 -77.4667 180° South 128 147 1,100 -600 Descending Potomac TRACON